Location: Ottawa
(45.4167°N, 75.7000°W)
Time: 08:23:23
(UTC-04:00)

ISS - Pass Details

Date: 09 October 2017
Orbit: 401 x 408 km, 51.6° (Epoch: 22 October)

Event Time Altitude Azimuth Distance (km) Brightness Sun altitude
Rises 20:33:43 0° 298° (WNW) 2,329 1.4 -22.8°
Reaches altitude 10° 20:35:48 10° 299° (WNW) 1,468 0.0 -23.2°
Enters shadow 20:38:03 40° 299° (WNW) 609 -2.5 -23.5°
